This demonstration page uses our WeatherBlox Daily Observations layout. Learn more.

Left ArrowRight Arrow

Hourly Observations for September 16, 2022

Temp ( °F °C ) Dew Point ( °F °C ) Humidity (%) Winds ( mph kmh ) Pressure ( in mb ) Visibility ( mi km ) Precip ( " mm )
12:55 am 00:55 Mostly Cloudy with Thunderstorms 72 22 56 13.3 58 58 SE 8 13 29.98 1015 10 16 0.00 0.00
1:55 am 01:55 Mostly Clear with Thunderstorms 73 22.5 54 12.1 52 52 S 12 19 29.99 1016 10 16 0.00 0.00
2:55 am 02:55 Mostly Cloudy 67 19.3 59 15.2 77 77 SE 7 11 29.98 1015 10 16 0.00 0.00
3:55 am 03:55 Mostly Cloudy 65 18.4 59 15.1 81 81 Calm 29.98 1015 10 16 0.00 0.00
4:55 am 04:55 Mostly Cloudy 65 18.5 59 15 80 80 S 7 11 29.98 1015 10 16 0.00 0.00
5:55 am 05:55 Mostly Clear 64 17.5 58 14.6 83 83 SSE 5 7 29.97 1015 10 16 0.00 0.00
6:55 am 06:55 Mostly Cloudy 65 18.4 58 14.5 78 78 SE 8 13 29.97 1015 10 16 0.00 0.00
7:49 am 07:49 Mostly Cloudy with Light Rain 64 18 59 15 83 83 SSE 3 6 29.99 1016 10 16 0.00 0.00
7:55 am 07:55 Mostly Cloudy with Rain 65 18.3 59 14.8 80 80 SSE 3 6 29.99 1016 9 14 0.01 0.25
8:48 am 08:48 Mostly Cloudy 66 19 61 16 83 83 SE 6 9 30.01 1016 10 16 0.00 0.00
8:55 am 08:55 undefined 66 18.9 61 15.9 83 83 SSE 8 13 30.01 1016 10 16 0.00 0.00
9:55 am 09:55 Mostly Cloudy 68 20 61 16 78 78 SSW 8 13 29.95 1014 10 16 0.00 0.00
10:55 am 10:55 Mostly Cloudy 71 21.5 61 16 71 71 S 8 13 29.99 1016 10 16 0.00 0.00
11:55 am 11:55 Cloudy 73 23 61 16.3 66 66 S 13 20 29.99 1016 10 16 0.00 0.00
12:55 pm 12:55 Mostly Sunny 77 25.1 62 16.8 60 60 S 10 17 29.97 1015 10 16 0.00 0.00
1:55 pm 13:55 Sunny 80 26.7 62 16.9 55 55 SSE 14 22 29.96 1015 10 16 0.00 0.00
2:55 pm 14:55 Mostly Cloudy 81 27.1 64 17.5 56 56 SE 15 24 29.94 1014 10 16 0.00 0.00
3:55 pm 15:55 Sunny 81 27.4 63 17.2 54 54 SE 16 26 29.93 1014 7 11 0.00 0.00
4:55 pm 16:55 Sunny 83 28.5 60 15.7 46 46 SSE 13 20 29.92 1013 9 14 0.00 0.00
5:55 pm 17:55 Sunny 81 27.4 62 16.6 52 52 SSE 15 24 29.92 1013 7 11 0.00 0.00
6:55 pm 18:55 Sunny 79 26.1 63 17.2 58 58 SE 12 19 29.92 1013 9 14 0.00 0.00
7:55 pm 19:55 Clear 73 23 63 17.2 70 70 SE 8 13 29.93 1013 10 16 0.00 0.00
8:55 pm 20:55 Clear 72 22.2 62 16.7 71 71 SE 8 13 29.93 1013 10 16 0.00 0.00
9:55 pm 21:55 Clear 71 21.4 61 16.3 73 73 SSE 7 11 29.91 1013 10 16 0.00 0.00
10:55 pm 22:55 Clear 68 20.1 61 16.1 78 78 ESE 5 7 29.93 1014 10 16 0.00 0.00
11:55 pm 23:55 Mostly Cloudy 68 19.9 61 15.9 78 78 E 6 9 29.92 1013 10 16 0.00 0.00

Powered by AerisWeather